[[{"header":{"parameterUnit":"m.s-1","parameterCategory":1,"la1":30.2991,"la2":30.254,"lo1":-89.0895,"lo2":-89.0444,"dy":0.0017,"dx":0.0017,"nx":28,"ny":28,"refTime":"2024-04-18T21:00:00:Z","depth":0,"parameterNumber":2,"parameterNumberName":"U-component_of_WINDS"},"data":[0,0,0,0,0,0,0,0,0,0,0,0,0,0,0,0,0,0,0,0,0,0,0,0,0,0,0,0,0,0,0,0,0,0,0,0,0,0,0,0,0,0,0,0,0,0,0,0,0,0,0,0,0,0,0,0,0,0,0.4931,0.4932,0,0.4968,0.4968,0.4969,0.4922,0.492,0.4918,0.4917,0.4954,0.4957,0.4959,0,0,0,0,0,0,0,0,0,0,0,0,0,0.4819,0.4821,0.4931,0.4932,0.4932,0.4968,0.4968,0.4969,0.4922,0.492,0.4918,0.4916,0.4954,0.4957,0.496,0,0,0,0,0,0,0,0,0,0,0,0,0,0.4863,0.4822,0.4931,0.4913,0.4912,0.4968,0.4968,0.4969,0.4923,0.492,0.4917,0.4915,0.4953,0.4956,0.496,0.5036,0,0,0.4972,0.4974,0,0,0,0,0,0,0,0,0.4861,0.4867,0.4915,0.4914,0.4913,0.4938,0.4943,0.4991,0.4923,0.4919,0.4917,0.4914,0.4951,0.4955,0.4967,0.5037,0.5039,0.4972,0.4975,0.4976,0.4978,0,0,0,0,0,0,0,0.4858,0.4865,0.4946,0.4916,0.4915,0.4903,0.4906,0.4952,0.4949,0.4919,0.4915,0.492,0.495,0.4964,0.4968,0.504,0.4972,0.4976,0.4978,0.498,0.5171,0.5174,0,0,0,0,0,0,0.4857,0.4863,0.4945,0.4947,0.488,0.4907,0.4911,0.4932,0.4948,0.4948,0.4923,0.4918,0.4958,0.4963,0.4969,0.5057,0.4976,0.498,0.4982,0.5169,0.5172,0.5175,0,0,0,0,0,0,0.4855,0.4864,0.4943,0.4904,0.4913,0.4911,0.4936,0.4935,0.4948,0.4951,0.495,0.4937,0.4956,0.4964,0.5019,0.5058,0.4982,0.4985,0.5165,0.517,0.5173,0.5235,0,0,0,0,0,0,0.4851,0.4864,0.4893,0.4905,0.4915,0.4993,0.4939,0.4937,0.4955,0.495,0.4965,0.4965,0.4955,0.5013,0.5023,0.5062,0.4988,0.5162,0.5167,0.5172,0.523,0.5241,0.5251,0,0,0,0,0,0.4848,0.4909,0.4895,0.4905,0.4952,0.4996,0.5001,0.4989,0.4959,0.4987,0.4989,0.4964,0.5052,0.5019,0.503,0.5071,0.5159,0.5166,0.5172,0.5225,0.5239,0.5251,0,0,0,0,0,0,0.4903,0.4911,0.4895,0.4962,0.4979,0.4988,0.5024,0.5004,0.503,0.5023,0.5007,0.5011,0.507,0.5075,0.5039,0.5143,0.5101,0.5109,0.5138,0.5151,0.5161,0.5158,0.4992,0,0,0,0,0,0.4922,0.4958,0.4963,0.5022,0.5031,0.5026,0.5045,0.5033,0.505,0.5056,0.5062,0.5078,0.5109,0.513,0.5159,0.523,0.5232,0.5263,0.5274,0.5282,0.529,0.5326,0.534,0.5195,0.5195,0.5195,0,0,0.4964,0.4973,0.4996,0.5033,0.5044,0.508,0.5032,0.5073,0.5099,0.5062,0.5115,0.5119,0.5136,0.52,0.5228,0.5206,0.533,0.529,0.5297,0.53,0.5334,0.5348,0.536,0.5199,0.5199,0.5198,0,0,0.5058,0.5069,0.5119,0.5131,0.5148,0.5144,0.5156,0.5168,0.5169,0.5222,0.5194,0.5225,0.528,0.5292,0.5306,0.5403,0.5381,0.5413,0.5468,0.5504,0.5515,0.5525,0.5559,0.5572,0.5421,0.5421,0.5421,0,0.5108,0.5162,0.5147,0.5189,0.5205,0.5173,0.5223,0.5235,0.5261,0.5273,0.5249,0.5315,0.5324,0.539,0.5413,0.5426,0.5438,0.5412,0.5515,0.5525,0.5534,0.5566,0.5579,0.5425,0.5424,0.5424,0.5423,0,0.5221,0.5259,0.5297,0.5322,0.5343,0.5389,0.538,0.5403,0.5389,0.5388,0.5441,0.545,0.548,0.5495,0.5482,0.5558,0.5544,0.5518,0.5474,0.5552,0.5582,0.5594,0.543,0.5429,0.5427,0.5427,0,0,0.5352,0.5368,0.5382,0.5393,0.5409,0.5437,0.5481,0.551,0.5529,0.5548,0.5583,0.5629,0.5604,0.562,0.5608,0.564,0.5715,0.5609,0.5609,0.5628,0.5798,0.5817,0.5832,0.57,0.5702,0.5704,0.5796,0,0.5446,0.5522,0.5509,0.5582,0.5616,0.5585,0.5623,0.5637,0.5636,0.5664,0.5663,0.5695,0.5661,0.567,0.5699,0.57,0.5749,0.5693,0.5733,0.5734,0.573,0.5848,0.5869,0.5955,0.5808,0.581,0.5811,0,0.5566,0.5588,0.5665,0.5675,0.5688,0.5723,0.5747,0.5775,0.5789,0.5786,0.5803,0.5785,0.5827,0.5783,0.5841,0.5803,0.5818,0.5821,0.5824,0.5827,0.5778,0.5854,0.5982,0.5995,0.5829,0.5828,0.5827,0,0.5653,0.5702,0.5754,0.5764,0.5777,0.5802,0.5808,0.582,0.5837,0.5858,0.5869,0.5895,0.591,0.593,0.5919,0.5888,0.5979,0.5934,0.5977,0.5977,0.5998,0.5997,0.613,0.6008,0.6008,0.6008,0.6007,0,0.5758,0.5806,0.5793,0.5825,0.5878,0.5862,0.5914,0.5916,0.5927,0.5958,0.5933,0.5963,0.5947,0.5975,0.5967,0.6016,0.6022,0.6021,0.6018,0.6023,0.6023,0.6033,0.6027,0.6011,0.601,0.601,0.6009,0,0.5865,0.5858,0.5912,0.5919,0.5922,0.5961,0.5966,0.5996,0.5992,0.6032,0.6041,0.6036,0.6068,0.6059,0.6094,0.6088,0.6149,0.6139,0.6145,0.6142,0.6186,0.6182,0.633,0.6349,0.6215,0.6216,0.6217,0,0.5933,0.5969,0.5979,0.5999,0.6007,0.6038,0.6056,0.6041,0.606,0.6078,0.6106,0.6135,0.6158,0.621,0.621,0.6236,0.6226,0.6276,0.6229,0.6233,0.6226,0.6224,0.6227,0.6285,0.6287,0.6288,0.6289,0,0.6053,0.6048,0.6075,0.61,0.6122,0.6141,0.6157,0.6174,0.6161,0.6184,0.6216,0.6234,0.6268,0.6298,0.6321,0.6327,0.6306,0.6303,0.6315,0.632,0.6322,0.6321,0.617,0.63,0.6299,0.6298,0.6298,0.6297,0.6142,0.6172,0.6184,0.6214,0.6225,0.6241,0.6269,0.6269,0.6296,0.6323,0.6313,0.6349,0.6361,0.639,0.6399,0.6427,0.6408,0.6425,0.6429,0.6433,0.6438,0.6317,0.6431,0.6431,0.6431,0.6431,0.643,0,0.6261,0.6267,0.6295,0.6319,0.6342,0.632,0.6337,0.6358,0.6391,0.6404,0.6426,0.6463,0.6491,0.6492,0.6518,0.654,0.6531,0.6547,0.6545,0.6547,0.6454,0.6442,0.6554,0.6554,0.6554,0.6554,0.6554,0.6554,0.6326,0.6375,0.6371,0.6425,0.6431,0.6467,0.6478,0.6492,0.6503,0.6545,0.6568,0.6568,0.6576,0.6602,0.6626,0.6626,0.6636,0.6657,0.6652,0.6566,0.6554,0.6542,0.653,0.6659,0.6659,0.6743,0.6743,0.6744]},{"header":{"parameterUnit":"m.s-1","parameterCategory":1,"la1":30.2991,"la2":30.254,"lo1":-89.0895,"lo2":-89.0444,"dy":0.0017,"dx":0.0017,"nx":28,"ny":28,"refTime":"2024-04-18T21:00:00:Z","depth":0,"parameterNumber":3,"parameterNumberName":"V-component_of_WINDS"},"data":[0,0,0,0,0,0,0,0,0,0,0,0,0,0,0,0,0,0,0,0,0,0,0,0,0,0,0,0,0,0,0,0,0,0,0,0,0,0,0,0,0,0,0,0,0,0,0,0,0,0,0,0,0,0,0,0,0,0,4.2313,4.2312,0,4.2249,4.2248,4.2247,4.2266,4.2268,4.2269,4.227,4.22,4.2196,4.2193,0,0,0,0,0,0,0,0,0,0,0,0,0,4.2449,4.2447,4.2313,4.2312,4.2311,4.2249,4.2248,4.2247,4.2266,4.2268,4.2269,4.2271,4.2201,4.2197,4.2193,0,0,0,0,0,0,0,0,0,0,0,0,0,4.2388,4.2446,4.2313,4.2313,4.2313,4.2249,4.2248,4.2247,4.2266,4.2268,4.227,4.2272,4.2202,4.2197,4.2193,4.2123,0,0,4.2178,4.2176,0,0,0,0,0,0,0,0,4.2391,4.2383,4.2314,4.2313,4.2313,4.2268,4.227,4.2205,4.2265,4.2283,4.227,4.2273,4.222,4.2214,4.2197,4.2119,4.2116,4.2178,4.2175,4.2173,4.2171,0,0,0,0,0,0,0,4.2396,4.2386,4.2287,4.2313,4.2312,4.2316,4.2309,4.2258,4.2241,4.2282,4.2283,4.2276,4.222,4.2202,4.2196,4.2115,4.2178,4.2174,4.2171,4.2169,4.1979,4.1977,0,0,0,0,0,0,4.2401,4.2389,4.2289,4.2285,4.2358,4.2312,4.2305,4.228,4.2242,4.2238,4.2274,4.2277,4.2209,4.2201,4.2193,4.2111,4.2173,4.2168,4.2166,4.1981,4.1978,4.1976,0,0,0,0,0,0,4.2404,4.2392,4.2292,4.2338,4.2325,4.2307,4.2279,4.2278,4.226,4.2236,4.2232,4.2259,4.221,4.22,4.2141,4.2109,4.2166,4.2162,4.1984,4.198,4.1977,4.1944,0,0,0,0,0,0,4.2408,4.2393,4.2367,4.2337,4.2323,4.2241,4.2277,4.2275,4.2252,4.2255,4.2221,4.2217,4.2211,4.2148,4.2136,4.2103,4.2158,4.1987,4.1982,4.1978,4.1948,4.194,4.1933,0,0,0,0,0,4.2412,4.2358,4.2365,4.2353,4.229,4.2239,4.2231,4.2227,4.2249,4.2222,4.2208,4.2218,4.2114,4.2142,4.2129,4.2094,4.1989,4.1983,4.1979,4.1951,4.1941,4.1933,0,0,0,0,0,0,4.2382,4.2354,4.2362,4.2296,4.227,4.2243,4.2209,4.2217,4.2183,4.2187,4.2182,4.2174,4.2114,4.2098,4.2129,4.2025,4.2054,4.2047,4.2038,4.2028,4.2021,4.2026,4.2154,0,0,0,0,0,4.2368,4.2331,4.2308,4.2252,4.2239,4.2226,4.2204,4.2204,4.2176,4.2164,4.2145,4.2117,4.2078,4.2052,4.2015,4.1946,4.1939,4.1915,4.1908,4.1902,4.1895,4.1859,4.1848,4.196,4.196,4.196,0,0,4.2338,4.2318,4.2294,4.2246,4.2226,4.2187,4.2217,4.2173,4.2144,4.2157,4.2101,4.2086,4.2054,4.199,4.1961,4.1975,4.1863,4.1895,4.1891,4.1887,4.1853,4.1842,4.1833,4.1956,4.1957,4.1957,0,0,4.2264,4.2245,4.2198,4.2178,4.2148,4.214,4.2129,4.21,4.2092,4.2036,4.2046,4.201,4.1943,4.192,4.19,4.182,4.1828,4.1808,4.1769,4.1734,4.1725,4.1717,4.169,4.168,4.1801,4.1801,4.1801,0,4.223,4.2173,4.2172,4.2129,4.2107,4.212,4.2072,4.2052,4.2011,4.1995,4.2012,4.193,4.1909,4.1841,4.1822,4.1804,4.1791,4.1812,4.1727,4.1719,4.1712,4.1685,4.1675,4.1799,4.1799,4.1799,4.18,0,4.2133,4.2093,4.2059,4.2021,4.1996,4.195,4.1942,4.1916,4.1919,4.1909,4.1853,4.1829,4.1788,4.1771,4.1772,4.1704,4.1714,4.1728,4.1758,4.1699,4.1674,4.1664,4.1796,4.1796,4.1797,4.1798,0,0,4.2037,4.2002,4.1989,4.1973,4.1942,4.1911,4.1866,4.1828,4.1807,4.1778,4.1741,4.1685,4.1699,4.1676,4.1675,4.1644,4.1584,4.1663,4.1662,4.165,4.1509,4.1498,4.1487,4.159,4.1588,4.1586,4.1512,0,4.1961,4.1884,4.1883,4.1813,4.1776,4.1789,4.175,4.1727,4.1717,4.1684,4.1672,4.1634,4.1655,4.1642,4.1612,4.1598,4.1556,4.1603,4.1554,4.1553,4.1563,4.1474,4.1462,4.1393,4.1502,4.15,4.1499,0,4.1861,4.1833,4.1759,4.1736,4.172,4.1686,4.1652,4.1621,4.1594,4.159,4.1565,4.1569,4.1523,4.1555,4.1492,4.1524,4.1504,4.1495,4.1492,4.1487,4.1523,4.1467,4.137,4.136,4.1484,4.1485,4.1486,0,4.18,4.1743,4.1692,4.1678,4.1648,4.1624,4.161,4.1587,4.1565,4.1535,4.1521,4.1485,4.1465,4.1438,4.1432,4.1455,4.1369,4.1399,4.1364,4.1364,4.1345,4.1346,4.1244,4.1331,4.1331,4.1331,4.1332,0,4.1716,4.167,4.1664,4.1633,4.1583,4.1582,4.1532,4.152,4.1499,4.1466,4.1473,4.1441,4.1435,4.1402,4.1397,4.1346,4.1337,4.1332,4.1331,4.1331,4.1332,4.1318,4.1323,4.1329,4.1329,4.133,4.133,0,4.1638,4.1632,4.1578,4.1556,4.155,4.1514,4.1494,4.1464,4.1456,4.1414,4.1404,4.139,4.1352,4.1343,4.1296,4.1293,4.1234,4.1237,4.1243,4.1244,4.1209,4.1213,4.1095,4.108,4.1176,4.1175,4.1174,0,4.1585,4.1551,4.1527,4.1506,4.1492,4.1457,4.1436,4.1434,4.1411,4.138,4.1354,4.1317,4.1287,4.1224,4.121,4.1175,4.1178,4.1139,4.1172,4.1175,4.1178,4.1181,4.1178,4.1133,4.1132,4.1131,4.113,0,4.1492,4.1492,4.1461,4.143,4.1405,4.138,4.1356,4.1338,4.1333,4.1307,4.1269,4.1246,4.12,4.1163,4.1128,4.1113,4.1121,4.112,4.111,4.111,4.1116,4.1114,4.1227,4.1123,4.1123,4.1124,4.1124,4.1125,4.1426,4.1397,4.1376,4.1342,4.1325,4.1303,4.1275,4.1264,4.1233,4.1197,4.1197,4.1156,4.1132,4.1086,4.1069,4.1037,4.1049,4.1034,4.103,4.1027,4.1024,4.1121,4.103,4.103,4.103,4.1031,4.1031,0,4.1334,4.1322,4.1291,4.1259,4.1233,4.1244,4.1219,4.1196,4.116,4.1138,4.1109,4.1066,4.1031,4.1015,4.098,4.0957,4.096,4.0948,4.095,4.0946,4.1015,4.1028,4.0946,4.0946,4.0946,4.0946,4.0946,4.0946,4.1283,4.1236,4.1233,4.1177,4.1165,4.1126,4.1111,4.1091,4.1074,4.1026,4.0997,4.0988,4.0968,4.0933,4.0901,4.0897,4.0884,4.0871,4.0869,4.0933,4.0941,4.0949,4.0962,4.0868,4.0868,4.0803,4.0802,4.0802]}]]